This is the latest recevied weather packets stored in our database for station/object N7ZAP. If no packets are shown the sender has not sent any weather packets the latest 10 day(s).
| Time | Temp. | Humidity | Pressure | Rain* | Wind** | Luminosity | Snow |
|---|---|---|---|---|---|---|---|
| 1788637705 | 34.44° C | 23% | 1019.9 hPa | 0 mm | - | - | - |
| 1788637404 | 34.44° C | 25% | 1020.2 hPa | 0 mm | - | - | - |
| 1788637103 | 35° C | 23% | 1020.4 hPa | 0 mm | - | - | - |
| 1788636799 | 35° C | 23% | 1020.4 hPa | 0 mm | - | - | - |
| 1788636494 | 35° C | 23% | 1020.1 hPa | 0 mm | - | - | - |
| 1788636190 | 34.44° C | 23% | 1020.2 hPa | 0 mm | - | - | - |
| 1788635889 | 33.89° C | 24% | 1020.7 hPa | 0 mm | - | - | - |
| 1788635588 | 33.33° C | 25% | 1020.9 hPa | 0 mm | - | - | - |
| 1788635287 | 33.33° C | 26% | 1021 hPa | 0 mm | - | - | - |
| 1788634987 | 33.89° C | 24% | 1021 hPa | 0 mm | - | - | - |
| 1788634686 | 35° C | 22% | 1021.1 hPa | 0 mm | - | - | - |
| 1788634381 | 33.89° C | 23% | 1021.1 hPa | 0 mm | - | - | - |
| 1788634074 | 33.89° C | 24% | 1020.9 hPa | 0 mm | - | - | - |
| 1788633774 | 32.78° C | 24% | 1021.6 hPa | 0 mm | - | - | - |
| 1788633473 | 32.78° C | 24% | 1021.1 hPa | 0 mm | - | - | - |
| 1788633168 | 32.78° C | 24% | 1021.2 hPa | 0 mm | - | - | - |
| 1788632868 | 33.33° C | 24% | 1021.4 hPa | 0 mm | - | - | - |
| 1788632568 | 33.89° C | 23% | 1021.6 hPa | 0 mm | - | - | - |
| 1788632263 | 33.33° C | 25% | 1021.9 hPa | 0 mm | - | - | - |
| 1788631962 | 32.78° C | 25% | 1021.8 hPa | 0 mm | - | - | - |
| 1788631657 | 32.78° C | 25% | 1021.9 hPa | 0 mm | - | - | - |
| 1788631352 | 32.78° C | 25% | 1022 hPa | 0 mm | - | - | - |
| 1788631052 | 32.78° C | 26% | 1022 hPa | 0 mm | - | - | - |
| 1788630747 | 32.78° C | 26% | 1021.8 hPa | 0 mm | - | - | - |
| 1788630442 | 32.22° C | 27% | 1021.8 hPa | 0 mm | - | - | - |
* Rain latest hour (hover to see other rain measurements)
** Current wind speed in m/s (hover to see current wind gust speed)